User: anonymous   Login
Location: Antichan
(42.9728°N, 0.6667°E)
Time: 19:23:50
(UTC+00:00)
Language:

Cosmos 1184 Rocket - Orbit

View from above orbital plane
View from above orbital plane
View from above satellite
View from above satellite

Ground track
Ground track

The orbit data is extracted from the following two-line orbital elements,

1 11822U 80044B   20304.49556419  .00003658  00000-0  62194-4 0  9990
2 11822  81.2290 169.0334 0009723 313.0724  46.9708 15.51057171223223
Epoch (UTC): 30 October 2020 11:53:36
Eccentricity: 0.0009723
inclination: 81.2290°
perigee height: 407 km
apogee height: 420 km
right ascension of ascending node: 169.0334°
argument of perigee: 313.0724°
revolutions per day: 15.51057171
mean anomaly at epoch: 46.9708°
orbit number at epoch: 22322

The dashed part of the orbit path shows where the satellite is in the earth's shadow,  

DLR